Regional Weather Roundup
Issued by NWS

Home | Current Version | Previous Version | Text Only | Print | Product List | Glossary Off
Versions: 1 2 3 4 5 6 7 8 9 10 11 12 13 14 15 16 17 18 19 20 21 22 23 24 25 26 27 28 29 30 31 32 33 34 35 36 37 38 39 40 41 42 43 44 45 46 47 48 49 50

000
ASUS43 KOAX 252302
RWRNE

WEATHER ROUNDUP FOR NEBRASKA
NATIONAL WEATHER SERVICE OMAHA NE
600 PM CDT THU MAY 25 2017

NOTES: SATELLITE DATA IS BEING USED TO AUGMENT CLOUD COVER ABOVE
       12000 FEET.
       "FAIR" INDICATES FEW OR NO CLOUDS BELOW 12,000 FEET WITH NO
       SIGNIFICANT WEATHER AND/OR OBSTRUCTIONS TO VISIBILITY.

  * THESE STATIONS DO NOT REPORT WEATHER SUCH AS RAIN...SNOW OR FOG.

NEZ001>004-019>022-054>056-260000-
NEBRASKA PANHANDLE

CITY           SKY/WX    TMP DP  RH WIND       PRES   REMARKS
SCOTTSBLUFF    MOSUNNY   69  44  40 W12       29.61R
ALLIANCE       CLOUDY    63  54  72 E7        29.60F
CHADRON        MOSUNNY   69  42  37 NW12      29.60R
GORDON         MOCLDY    71  46  40 NW9       29.59R
KIMBALL        CLOUDY    65  42  41 NW12      29.69R
SIDNEY         CLOUDY    67  50  54 N7        29.64R
$$

NEZ057>060-069>072-079>082-260000-
SOUTHWEST NEBRASKA

CITY           SKY/WX    TMP DP  RH WIND       PRES   REMARKS
NORTH PLATTE   TSTM      66  53  63 CALM      29.59R
IMPERIAL       CLOUDY    63  56  78 SE6       29.62R
LEXINGTON      CLOUDY    73  56  54 CALM      29.57R
MCCOOK         CLOUDY    74  54  49 N10       29.56R
OGALLALA       CLOUDY    62  53  72 CALM      29.60R
$$

NEZ005>010-023>029-035>040-094-260000-
NORTH CENTRAL NEBRASKA

CITY           SKY/WX    TMP DP  RH WIND       PRES   REMARKS
VALENTINE      CLOUDY    73  41  31 NE8       29.57R
AINSWORTH      CLOUDY    69  51  52 NE5       29.58R
BROKEN BOW     MOSUNNY   71  53  52 S3        29.58R
O`NEILL          N/A     72  51  46 S3        29.55R
ORD            CLOUDY    74  50  42 VRB5      29.54R
THEDFORD       CLOUDY    72  50  46 NE6       29.58R
$$

NEZ041-046>049-061>064-073>077-083>087-260000-
SOUTH CENTRAL NEBRASKA

CITY           SKY/WX    TMP DP  RH WIND       PRES   REMARKS
GRAND ISLAND   CLOUDY    74  53  48 S10       29.52R
AURORA         CLOUDY    74  52  45 S7        29.52R
HASTINGS       SUNNY     75  53  46 SE8       29.52R
HEBRON         SUNNY     79  55  42 S14       29.50F
HOLDREGE       SUNNY     75  52  44 W6        29.53R
KEARNEY *      CLOUDY    75  52  43 CALM      29.54R
$$

NEZ011>018-030>034-042>045-260000-
NORTHEAST NEBRASKA

CITY           SKY/WX    TMP DP  RH WIND       PRES   REMARKS
NORFOLK        SUNNY     76  50  40 S13       29.52F
ALBION         SUNNY     75  50  41 S8        29.53R
BLAIR          CLOUDY    74  52  45 SE15G22   29.53F
FREMONT        CLOUDY    76  51  41 S14G21    29.54R
TEKAMAH        CLOUDY    71  53  52 S14       29.53F
WAYNE          MOSUNNY   76  51  41 S12G18    29.54S
$$

NEZ050>053-065>068-078-088>093-260000-
SOUTHEAST NEBRASKA

CITY           SKY/WX    TMP DP  RH WIND       PRES   REMARKS
LINCOLN        CLOUDY    78  54  43 SE14      29.53S
OMAHA EPPLEY   CLOUDY    75  53  46 S10       29.54F
BEATRICE       CLOUDY    78  55  46 S12G18    29.53S
FALLS CITY     MOSUNNY   76  54  46 SE21G26   29.53F
NEBRASKA CITY  MOSUNNY   74  48  39 SE13      29.56R
PLATTSMOUTH    CLOUDY    78  52  39 S12G20    29.56R
$$

NEZ044-045-051>053-067-260000-
OMAHA AREA

CITY           SKY/WX    TMP DP  RH WIND       PRES   REMARKS
OMAHA EPPLEY   CLOUDY    75  53  46 S10       29.54F
BLAIR          CLOUDY    74  52  45 SE15G22   29.53F
FREMONT        CLOUDY    76  51  41 S14G21    29.54R
MILLARD        MOSUNNY   76  56  48 SE15G21   29.53S
OFFUTT AFB     CLOUDY    76  53  44 SE15      29.53F
PLATTSMOUTH    CLOUDY    78  52  39 S12G20    29.56R
WAHOO          FAIR      76  49  39 S20       29.53S
$$




USA.gov is the U.S. government's official web portal to all federal, state and local government web resources and services.